Regional Weather Roundup
Issued by NWS Cleveland, OH

Home | Current Version | Previous Version | Graphics & Text | Print | Product List | Glossary On
Versions: 1 2 3 4 5 6 7 8 9 10 11 12 13 14 15 16 17 18 19 20 21 22 23 24 25 26 27 28 29 30 31 32 33 34 35 36 37 38 39 40 41 42 43 44 45 46 47 48 49 50
340
ASUS41 KCLE 090400
RWRCLE
OHIO REGIONAL WEATHER ROUNDUP
NATIONAL WEATHER SERVICE WILMINGTON, OH
1100 PM EST MON FEB 08 2016

NOTE: "FAIR" INDICATES FEW OR NO CLOUDS BELOW 12,000 FEET WITH NO
SIGNIFICANT WEATHER AND/OR OBSTRUCTIONS TO VISIBILITY.

OHZ001>008-015>018-024>027-034-035-043-044-090500-
   NORTHWEST OHIO

CITY           SKY/WX    TMP DP  RH WIND       PRES   REMARKS
DEFIANCE       CLOUDY    32  26  78 W6G18     29.64F WCI  26
FINDLAY        CLOUDY    33  28  81 W13       29.62S WCI  24
TOLEDO EXPRESS CLOUDY    32  27  81 W12       29.61F WCI  23
TOLEDO EXEC    CLOUDY    33  27  78 W12       29.62S WCI  24
LIMA           CLOUDY    29  27  92 W17       29.64S WCI  17
$$

OHZ009>014-019>023-028>033-038-089-090500-
   NORTHEAST OHIO

CITY           SKY/WX    TMP DP  RH WIND       PRES   REMARKS
CLE-HOPKINS    LGT SNOW  33  30  88 W8        29.61F VSB 1   WCI  26
CLE-LAKEFRONT  LGT SNOW  34  32  92 SW9       29.58F FOG     WCI  27
CUY CO. ARPT   LGT SNOW  34  32  93 SW7       29.58F FOG     WCI  28
LORAIN-ELYRIA  LGT SNOW  32  30  92 W7        29.59F FOG     WCI  26
ASHTABULA      FLURRIES  33  32  96 W6        29.57F WCI  28
AKRON-CANTON   LGT SNOW  32  30  92 SW5       29.58F WCI  27
WOOSTER        NOT AVBL
MANSFIELD      FAIR      30  29  96 W6        29.58F WCI  24
YOUNGSTOWN     FLURRIES  32  30  92 SW6       29.57F WCI  26
$$

OHZ042-051>053-060>062-070>072-077>081-090500-
  SOUTHWEST OHIO

CITY           SKY/WX    TMP DP  RH WIND       PRES   REMARKS
CINC-COVINGTON LGT SNOW  23  20  88 W17       29.74R VSB 3/4 WCI   9
CINC-LUNKEN    LGT SNOW  25  22  88 W17       29.77S FOG     WCI  12
HAMILTON       LGT SNOW  25  23  92 W9        29.75S VSB 1   WCI  15
DAYTON         NOT AVBL
WRIGHT-PAT AFB FLURRIES  28  25  86 W9        29.68S WCI  20
DAYTON GENERAL LGT SNOW  25  21  85 W9        29.69S VSB 1   WCI  15
WILMINGTON     LGT SNOW  27  24  89 W13       29.67S FOG     WCI  16
$$

OHZ036-037-039>041-045>050-054>059-063>069-073>076-082>088-090500-
  CENTRAL AND SOUTHEAST OHIO

CITY           SKY/WX    TMP DP  RH WIND       PRES   REMARKS
COLUMBUS       LGT SNOW  32  32 100 W8        29.62F FOG     WCI  25
OSU AIRPORT    LGT SNOW  32  30  92 W12       29.62S FOG     WCI  23
BOLTON FIELD   NOT AVBL
RICKENBACK AFB NOT AVBL
NEWARK         LGT SNOW  34  30  85 MISG      29.61F FOG
MARION         CLOUDY    32  27  81 NW9       29.62F HAZE    WCI  24
LANCASTER      LGT SNOW  33  31  92 W5        29.63S VSB 3/4 WCI  29
ZANESVILLE     LGT SNOW  34  32  92 SW3       29.61F VSB 3/4
NEW PHILLY     CLOUDY    32  31  96 CALM      29.61S FOG
$$




USA.gov is the U.S. government's official web portal to all federal, state and local government web resources and services.